Location: Camaret
(48.2753°N, 4.5961°W)
Time: 00:33:38
(UTC+00:00)

Cosmos 2278 - Pass Details

Date: 29 October 2020
Orbit: 842 x 851 km, 71.1° (Epoch: 26 November)

Event Time Altitude Azimuth Distance (km) Brightness Sun altitude
Rises 19:45:49 0° 211° (SSW) 3,399 7.1 -27.4°
Reaches altitude 10° 19:48:16 10° 213° (SSW) 2,466 6.4 -27.8°
Maximum altitude 19:53:55 75° 299° (WNW) 881 3.8 -28.8°
Enters shadow 19:54:43 64° 355° (N) 939 3.9 -28.9°
